• In Germany
  • List of Countries
  • For 7 days
  • Water Temperature
  • Satellite Maps
  • Weather Map
  • Weather Widgets
  • user-avatar
    Login

    Hourly Weather Chitkan

    Today, 21 September, Friday

    Time Temperature Precipitation Wind Pressure Humidity
    00:00 +5°C° 0.1 mm 2 mps 713 mmHg 88%
    01:00 +5°C° 0 mm 2 mps 714 mmHg 89%
    02:00 +5°C° 0.2 mm 2 mps 714 mmHg 90%
    03:00 +5°C° 0.2 mm 2 mps 714 mmHg 90%
    04:00 +5°C° 0.2 mm 2 mps 714 mmHg 90%
    05:00 +5°C° 0.4 mm 2 mps 714 mmHg 90%
    06:00 +5°C° 0.4 mm 2 mps 715 mmHg 89%
    07:00 +5°C° 0.4 mm 2 mps 715 mmHg 88%
    08:00 +6°C° 0.3 mm 2 mps 715 mmHg 86%
    09:00 +6°C° 0.3 mm 2 mps 716 mmHg 83%
    10:00 +7°C° 0.3 mm 2 mps 716 mmHg 81%
    11:00 +7°C° 0.4 mm 2 mps 716 mmHg 80%
    12:00 +7°C° 0.4 mm 2 mps 717 mmHg 80%
    13:00 +8°C° 0 mm 3 mps 716 mmHg 79%
    14:00 +7°C° 0.5 mm 2 mps 716 mmHg 81%
    15:00 +7°C° 0.5 mm 2 mps 717 mmHg 83%
    16:00 +7°C° 0.5 mm 2 mps 717 mmHg 85%
    17:00 +7°C° 0.3 mm 1 mps 717 mmHg 88%
    18:00 +7°C° 0.3 mm 1 mps 718 mmHg 90%
    19:00 +6°C° 0.3 mm 1 mps 718 mmHg 92%
    20:00 +6°C° 0.1 mm 1 mps 718 mmHg 93%
    21:00 +5°C° 0.1 mm 1 mps 719 mmHg 93%
    22:00 +5°C° 0.1 mm 1 mps 719 mmHg 94%
    23:00 +5°C° 0 mm 1 mps 719 mmHg 94%

    Tomorrow, 22 September, Saturday

    Time Temperature Precipitation Wind Pressure Humidity
    00:00 +4°C° 0 mm 1 mps 720 mmHg 94%
    01:00 +4°C° 0 mm 1 mps 720 mmHg 94%
    02:00 +4°C° 0 mm 1 mps 720 mmHg 94%
    03:00 +4°C° 0 mm 1 mps 721 mmHg 94%
    04:00 +3°C° 0 mm 1 mps 721 mmHg 94%
    05:00 +4°C° 0 mm 1 mps 721 mmHg 93%
    06:00 +5°C° 0 mm 1 mps 722 mmHg 91%
    07:00 +6°C° 0 mm 1 mps 722 mmHg 90%
    08:00 +8°C° 0 mm 1 mps 722 mmHg 85%
    09:00 +9°C° 0 mm 1 mps 722 mmHg 79%
    10:00 +11°C° 0 mm 1 mps 722 mmHg 74%
    11:00 +12°C° 0 mm 1 mps 722 mmHg 73%
    12:00 +12°C° 0 mm 1 mps 722 mmHg 71%
    13:00 +13°C° 0 mm 2 mps 722 mmHg 69%
    14:00 +12°C° 0 mm 2 mps 722 mmHg 71%
    15:00 +12°C° 0 mm 1 mps 721 mmHg 72%
    16:00 +11°C° 0 mm 1 mps 721 mmHg 74%
    17:00 +9°C° 0 mm 1 mps 722 mmHg 79%
    18:00 +8°C° 0 mm 1 mps 722 mmHg 85%
    19:00 +6°C° 0 mm 1 mps 722 mmHg 90%
    20:00 +5°C° 0 mm 1 mps 722 mmHg 90%
    21:00 +5°C° 0 mm 1 mps 722 mmHg 91%
    22:00 +4°C° 0 mm 1 mps 723 mmHg 91%
    23:00 +4°C° 0 mm 1 mps 723 mmHg 91%

    Day after tomorrow, 23 September, Sunday

    Time Temperature Precipitation Wind Pressure Humidity
    00:00 +4°C° 0 mm 1 mps 723 mmHg 90%
    01:00 +4°C° 0 mm 1 mps 723 mmHg 90%
    02:00 +4°C° 0 mm 1 mps 723 mmHg 90%
    03:00 +4°C° 0 mm 1 mps 722 mmHg 90%
    04:00 +4°C° 0 mm 1 mps 722 mmHg 89%
    05:00 +5°C° 0 mm 1 mps 722 mmHg 86%
    06:00 +6°C° 0 mm 1 mps 723 mmHg 83%
    07:00 +7°C° 0 mm 1 mps 723 mmHg 80%
    08:00 +9°C° 0 mm 1 mps 723 mmHg 74%
    09:00 +11°C° 0 mm 1 mps 722 mmHg 68%
    10:00 +14°C° 0 mm 1 mps 722 mmHg 62%
    11:00 +14°C° 0 mm 1 mps 722 mmHg 59%
    12:00 +15°C° 0 mm 1 mps 721 mmHg 55%
    13:00 +16°C° 0 mm 1 mps 721 mmHg 52%
    14:00 +15°C° 0 mm 1 mps 721 mmHg 54%
    15:00 +15°C° 0 mm 1 mps 720 mmHg 56%
    16:00 +14°C° 0 mm 1 mps 720 mmHg 59%
    17:00 +12°C° 0 mm 1 mps 720 mmHg 65%
    18:00 +10°C° 0 mm 1 mps 720 mmHg 71%
    19:00 +8°C° 0 mm 1 mps 720 mmHg 78%
    20:00 +7°C° 0 mm 1 mps 720 mmHg 79%
    21:00 +7°C° 0 mm 1 mps 720 mmHg 80%
    22:00 +6°C° 0 mm 1 mps 720 mmHg 81%
    23:00 +5°C° 0 mm 2 mps 720 mmHg 82%

    24 September, Monday

    Time Temperature Precipitation Wind Pressure Humidity
    00:00 +5°C° 0 mm 2 mps 720 mmHg 83%
    01:00 +5°C° 0 mm 2 mps 720 mmHg 83%
    02:00 +5°C° 0 mm 2 mps 719 mmHg 84%
    03:00 +4°C° 0 mm 2 mps 719 mmHg 85%
    04:00 +4°C° 0 mm 2 mps 719 mmHg 85%
    05:00 +5°C° 0 mm 2 mps 719 mmHg 83%
    06:00 +6°C° 0 mm 2 mps 719 mmHg 80%
    07:00 +8°C° 0 mm 1 mps 719 mmHg 77%
    08:00 +10°C° 0 mm 1 mps 719 mmHg 70%
    09:00 +12°C° 0 mm 1 mps 719 mmHg 63%
    10:00 +14°C° 0 mm 1 mps 718 mmHg 57%
    11:00 +15°C° 0 mm 1 mps 718 mmHg 54%
    12:00 +16°C° 0 mm 1 mps 718 mmHg 50%
    13:00 +18°C° 0 mm 1 mps 717 mmHg 47%
    14:00 +16°C° 0 mm 1 mps 717 mmHg 50%
    15:00 +16°C° 0 mm 1 mps 717 mmHg 52%
    16:00 +15°C° 0 mm 1 mps 717 mmHg 54%
    17:00 +13°C° 0 mm 1 mps 717 mmHg 60%
    18:00 +11°C° 0 mm 1 mps 717 mmHg 67%
    19:00 +9°C° 0 mm 1 mps 717 mmHg 73%
    20:00 +8°C° 0 mm 1 mps 717 mmHg 74%
    21:00 +8°C° 0 mm 1 mps 717 mmHg 75%
    22:00 +7°C° 0 mm 1 mps 717 mmHg 76%
    23:00 +7°C° 0 mm 1 mps 717 mmHg 77%

    25 September, Tuesday

    Time Temperature Precipitation Wind Pressure Humidity
    00:00 +7°C° 0 mm 1 mps 717 mmHg 77%
    01:00 +6°C° 0 mm 1 mps 716 mmHg 78%
    02:00 +6°C° 0 mm 1 mps 716 mmHg 79%
    03:00 +6°C° 0 mm 1 mps 716 mmHg 80%
    04:00 +6°C° 0 mm 1 mps 716 mmHg 81%
    05:00 +7°C° 0 mm 1 mps 716 mmHg 79%
    06:00 +8°C° 0 mm 1 mps 716 mmHg 76%
    07:00 +9°C° 0 mm 1 mps 716 mmHg 74%
    08:00 +11°C° 0 mm 1 mps 716 mmHg 67%
    09:00 +13°C° 0 mm 1 mps 716 mmHg 60%
    10:00 +15°C° 0 mm 1 mps 716 mmHg 54%
    11:00 +16°C° 0 mm 1 mps 715 mmHg 51%
    12:00 +18°C° 0 mm 1 mps 715 mmHg 49%
    13:00 +19°C° 0 mm 1 mps 715 mmHg 46%
    14:00 +18°C° 0 mm 1 mps 715 mmHg 49%
    15:00 +17°C° 0 mm 2 mps 714 mmHg 52%
    16:00 +16°C° 0 mm 2 mps 714 mmHg 55%
    17:00 +14°C° 0 mm 2 mps 714 mmHg 62%
    18:00 +12°C° 0 mm 2 mps 714 mmHg 69%
    19:00 +9°C° 0 mm 2 mps 714 mmHg 76%
    20:00 +9°C° 0 mm 2 mps 714 mmHg 77%
    21:00 +8°C° 0 mm 2 mps 714 mmHg 78%
    22:00 +8°C° 0 mm 2 mps 714 mmHg 79%
    23:00 +8°C° 0 mm 2 mps 714 mmHg 80%

    26 September, Wednesday

    Time Temperature Precipitation Wind Pressure Humidity
    00:00 +8°C° 0 mm 2 mps 713 mmHg 81%
    01:00 +8°C° 0 mm 2 mps 713 mmHg 81%
    02:00 +8°C° 0 mm 2 mps 713 mmHg 82%
    03:00 +9°C° 0 mm 1 mps 713 mmHg 82%
    04:00 +9°C° 0 mm 1 mps 713 mmHg 82%
    05:00 +9°C° 0 mm 1 mps 713 mmHg 81%
    06:00 +10°C° 0 mm 1 mps 713 mmHg 80%
    07:00 +10°C° 0 mm 1 mps 713 mmHg 79%
    08:00 +11°C° 0.1 mm 1 mps 713 mmHg 76%
    09:00 +13°C° 0.1 mm 1 mps 713 mmHg 73%
    10:00 +14°C° 0.1 mm 1 mps 713 mmHg 70%
    11:00 +14°C° 0.2 mm 1 mps 712 mmHg 70%
    12:00 +15°C° 0.2 mm 1 mps 712 mmHg 69%
    13:00 +15°C° 0.2 mm 1 mps 712 mmHg 69%
    14:00 +14°C° 0.4 mm 1 mps 712 mmHg 74%
    15:00 +13°C° 0.4 mm 1 mps 712 mmHg 78%
    16:00 +12°C° 0.4 mm 1 mps 712 mmHg 83%
    17:00 +12°C° 0.7 mm 1 mps 712 mmHg 86%
    18:00 +11°C° 0.7 mm 1 mps 712 mmHg 89%
    19:00 +10°C° 0.7 mm 1 mps 712 mmHg 93%
    20:00 +10°C° 0.8 mm 1 mps 712 mmHg 93%
    21:00 +10°C° 0.8 mm 1 mps 712 mmHg 94%
    22:00 +9°C° 0.8 mm 1 mps 712 mmHg 94%
    23:00 +9°C° 0.5 mm 1 mps 712 mmHg 95%
    Show more